Waarnemingen

Advertentie
Mijn weer
Santander/Parayas, Spanje (8021): temperatuur & dauwpunt: 15.02.2018 14:00:00 - 21.02.2018 14:00:00 (CET)Santander/Parayas, Spanje (8021): windsnelheid: 15.02.2018 14:00:00 - 21.02.2018 14:00:00 (CET)Santander/Parayas, Spanje (8021): windrichting: 15.02.2018 14:00:00 - 21.02.2018 14:00:00 (CET)Santander/Parayas, Spanje (8021): luchtdruk: 15.02.2018 14:00:00 - 21.02.2018 14:00:00 (CET)Santander/Parayas, Spanje (8021): zicht: 15.02.2018 14:00:00 - 21.02.2018 14:00:00 (CET)
Datum & Tijd tt [°C] td [°C] ff [km/u] ff [kn] dd ppp [hPa] vv [km]
21.02.2018 14:00:00 - - - - - - -
21.02.2018 13:00:00 10,5 7,2 21 11 NO 1019,3 25
21.02.2018 12:00:00 9,3 6,5 16 9 N 1019,9 -
21.02.2018 11:00:00 8,9 6,0 28 15 NO 1020,1 -
21.02.2018 10:00:00 9,4 4,7 21 11 NNO 1020,1 20
21.02.2018 09:00:00 8,6 6,0 8 4 N 1020,1 -
21.02.2018 08:00:00 8,2 5,7 8 4 N 1019,9 -
21.02.2018 07:00:00 8,8 4,2 13 7 NNW 1019,9 25
21.02.2018 06:00:00 9,7 3,8 18 10 N 1020,2 -
21.02.2018 05:00:00 9,5 3,0 18 10 N 1020,5 -
21.02.2018 04:00:00 9,9 5,4 26 14 N 1020,9 -
21.02.2018 03:00:00 10,8 6,8 24 13 NNW 1020,9 -
21.02.2018 02:00:00 10,8 8,1 21 11 NNW 1020,7 -
21.02.2018 01:00:00 10,8 8,2 22 12 NNW 1021,2 -
21.02.2018 00:00:00 10,7 9,9 24 13 NNW 1021,6 -
20.02.2018 23:00:00 11,5 10,1 15 8 N 1022,0 -
20.02.2018 22:00:00 11,2 9,6 9 5 WNW 1022,4 12
20.02.2018 21:00:00 11,5 9,4 15 8 NNW 1022,8 -
20.02.2018 20:00:00 11,5 9,6 15 8 NNW 1023,3 -
20.02.2018 19:00:00 11,5 10,1 16 9 NW 1023,4 8
20.02.2018 18:00:00 12,2 9,7 21 11 NW 1023,4 -
20.02.2018 17:00:00 12,9 9,7 18 10 NNW 1023,4 -
20.02.2018 16:00:00 12,6 10,0 21 11 NW 1023,5 20
20.02.2018 15:00:00 11,9 11,2 18 10 WNW 1023,7 -
20.02.2018 14:00:00 11,8 11,3 18 10 WNW 1023,8 -
20.02.2018 13:00:00 12,7 10,5 21 11 WNW 1024,0 10
20.02.2018 12:00:00 13,0 10,6 22 12 NW 1024,2 -
20.02.2018 11:00:00 12,5 10,6 16 9 NW 1024,3 -
20.02.2018 10:00:00 11,7 10,3 18 10 NW 1024,1 9
20.02.2018 09:00:00 11,7 9,9 21 11 NW 1023,8 -
20.02.2018 08:00:00 11,4 10,3 22 12 NW 1023,2 -
20.02.2018 07:00:00 10,8 10,8 9 5 W 1023,0 8
20.02.2018 06:00:00 10,9 10,6 16 9 WNW 1023,1 -
20.02.2018 05:00:00 11,3 11,3 18 10 NW 1023,0 -
20.02.2018 04:00:00 10,3 10,3 26 14 NNW 1023,1 -
20.02.2018 03:00:00 11,5 11,5 18 10 NW 1022,9 -
20.02.2018 02:00:00 11,2 11,2 18 10 NNW 1022,9 -
20.02.2018 01:00:00 11,6 11,6 18 10 NW 1022,8 -
20.02.2018 00:00:00 11,1 11,1 21 11 WNW 1022,7 -
19.02.2018 23:00:00 11,5 11,5 18 10 NW 1022,8 -
19.02.2018 22:00:00 11,3 11,3 18 10 NW 1022,8 2,0
19.02.2018 21:00:00 11,6 11,6 18 10 NW 1022,8 -
19.02.2018 20:00:00 11,1 11,1 18 10 NNW 1022,6 -
19.02.2018 19:00:00 11,8 11,8 21 11 NW 1022,3 4,0
19.02.2018 18:00:00 11,9 11,9 21 11 NW 1021,9 -
19.02.2018 17:00:00 12,0 12,0 18 10 WNW 1022,0 -
19.02.2018 16:00:00 12,1 12,1 22 12 NW 1021,9 6
19.02.2018 15:00:00 12,6 12,6 18 10 NW 1022,1 -
19.02.2018 14:00:00 12,3 12,3 16 9 NW 1022,2 -
19.02.2018 13:00:00 12,5 12,5 16 9 WNW 1022,6 8
19.02.2018 12:00:00 12,9 12,9 16 9 WNW 1022,6 -
19.02.2018 11:00:00 12,4 12,4 13 7 WNW 1022,5 -
19.02.2018 10:00:00 12,0 12,0 11 6 NNW 1022,4 12
19.02.2018 09:00:00 11,2 11,2 9 5 W 1022,2 -
19.02.2018 08:00:00 11,0 11,0 11 6 W 1022,2 -
19.02.2018 07:00:00 11,0 11,0 16 9 WNW 1022,0 7
19.02.2018 06:00:00 10,8 10,8 18 10 W 1021,9 -
19.02.2018 05:00:00 11,1 11,1 13 7 W 1022,1 -
19.02.2018 04:00:00 10,5 10,5 8 4 W 1022,3 -
19.02.2018 03:00:00 10,8 10,8 11 6 W 1022,9 -
19.02.2018 02:00:00 11,0 11,0 11 6 W 1023,4 -
19.02.2018 01:00:00 10,6 10,3 16 9 WZW 1023,8 -
19.02.2018 00:00:00 11,0 11,0 16 9 W 1024,0 -
18.02.2018 23:00:00 11,1 11,1 18 10 WZW 1024,4 -
18.02.2018 22:00:00 11,5 11,5 18 10 W 1024,8 9
18.02.2018 21:00:00 11,5 11,5 16 9 W 1025,2 -
18.02.2018 20:00:00 11,5 11,4 18 10 W 1025,6 -
18.02.2018 19:00:00 11,7 10,6 15 8 W 1025,7 -
18.02.2018 18:00:00 12,2 10,3 15 8 W 1025,6 -
18.02.2018 17:00:00 12,6 9,8 15 8 W 1026,0 -
18.02.2018 16:00:00 12,5 9,1 18 10 W 1026,1 20
18.02.2018 15:00:00 12,6 7,4 16 9 W 1026,3 -
18.02.2018 14:00:00 12,3 6,7 18 10 W 1026,8 -
18.02.2018 13:00:00 11,8 6,3 13 7 ZW 1027,4 25
18.02.2018 12:00:00 10,8 5,2 13 7 ZZW 1028,0 -
18.02.2018 11:00:00 9,7 5,3 15 8 ZW 1028,1 -
18.02.2018 10:00:00 9,0 5,9 9 5 ZW 1028,0 25
18.02.2018 09:00:00 8,3 5,4 13 7 ZZW 1027,6 -
18.02.2018 08:00:00 7,7 5,0 15 8 ZZW 1027,8 -
18.02.2018 07:00:00 7,5 5,3 11 6 ZZW 1027,9 20
18.02.2018 06:00:00 7,0 5,0 9 5 ZW 1028,2 -
18.02.2018 05:00:00 6,8 4,8 8 4 WZW 1028,5 -
18.02.2018 04:00:00 7,1 5,4 8 4 ZW 1028,9 -
18.02.2018 03:00:00 7,5 6,3 8 4 ZW 1029,5 -
18.02.2018 02:00:00 7,7 7,0 5 3 ZW 1029,7 -
18.02.2018 01:00:00 7,5 6,9 5 3 ZZW 1029,9 -
18.02.2018 00:00:00 8,0 7,4 5 3 ZZW 1029,9 -
17.02.2018 23:00:00 7,1 5,9 9 5 ZW 1029,7 -
17.02.2018 22:00:00 7,5 6,0 4 2 ZZO 1029,6 15
17.02.2018 21:00:00 8,4 6,5 5 3 ZW 1029,4 -
17.02.2018 20:00:00 9,3 7,1 9 5 ZW 1029,4 -
17.02.2018 19:00:00 10,2 6,3 8 4 W 1029,1 20
17.02.2018 18:00:00 12,2 7,0 11 6 WNW 1028,8 -
17.02.2018 17:00:00 12,1 8,4 13 7 W 1028,7 -
17.02.2018 16:00:00 12,9 8,2 18 10 WNW 1028,5 25
17.02.2018 15:00:00 12,1 8,2 16 9 WZW 1028,6 -
17.02.2018 14:00:00 12,5 9,3 18 10 W 1028,8 -
17.02.2018 13:00:00 11,1 6,9 24 13 NW 1029,2 4,0
17.02.2018 12:00:00 12,6 10,0 22 12 W 1028,6 -
17.02.2018 11:00:00 11,2 9,5 15 8 W 1028,2 -
17.02.2018 10:00:00 10,7 9,2 15 8 WZW 1027,7 15
17.02.2018 09:00:00 9,6 8,4 15 8 W 1027,4 -
17.02.2018 08:00:00 10,1 8,4 13 7 ZW 1026,5 -
17.02.2018 07:00:00 10,0 9,2 15 8 ZW 1026,1 15
17.02.2018 06:00:00 10,0 10,0 15 8 WZW 1025,9 -
17.02.2018 05:00:00 10,0 10,0 16 9 ZZW 1025,7 -
17.02.2018 04:00:00 10,4 10,1 11 6 W 1025,6 -
17.02.2018 03:00:00 10,3 9,5 15 8 W 1025,3 -
17.02.2018 02:00:00 11,3 11,1 22 12 NW 1024,4 -
17.02.2018 01:00:00 12,1 12,1 24 13 WNW 1023,7 -
17.02.2018 00:00:00 12,8 12,8 22 12 W 1022,6 -
16.02.2018 23:00:00 13,0 13,0 8 4 ZZW 1021,3 -
16.02.2018 22:00:00 13,1 13,1 5 3 W 1021,1 6
16.02.2018 21:00:00 12,9 12,9 8 4 W 1021,0 -
16.02.2018 20:00:00 12,8 12,8 11 6 W 1021,1 -
16.02.2018 19:00:00 12,8 12,8 8 4 WNW 1020,6 3,0
16.02.2018 18:00:00 13,1 13,1 8 4 O 1020,0 -
16.02.2018 17:00:00 13,9 13,1 8 4 ONO 1019,7 -
16.02.2018 16:00:00 15,1 13,3 11 6 NO 1019,9 8
16.02.2018 15:00:00 14,9 13,3 13 7 ONO 1020,1 -
16.02.2018 14:00:00 15,7 13,7 9 5 NO 1021,2 -
16.02.2018 13:00:00 14,7 13,4 8 4 NO 1021,9 2,8
16.02.2018 12:00:00 13,9 13,6 4 2 ONO 1022,5 -
16.02.2018 11:00:00 13,6 13,5 0 0 N 1022,9 -
16.02.2018 10:00:00 11,8 11,8 4 2 WNW 1023,0 9
16.02.2018 09:00:00 10,3 10,3 2 1 ZW 1023,0 -
16.02.2018 08:00:00 10,0 10,0 2 1 W 1022,7 -
16.02.2018 07:00:00 10,0 10,0 0 0 N 1022,3 9
16.02.2018 06:00:00 9,9 9,9 0 0 N 1022,5 -
16.02.2018 05:00:00 10,1 10,1 0 0 N 1022,3 -
16.02.2018 04:00:00 10,3 10,3 0 0 N 1022,6 -
16.02.2018 03:00:00 10,1 10,1 0 0 N 1023,0 -
16.02.2018 02:00:00 10,3 10,3 0 0 N 1022,9 -
16.02.2018 01:00:00 11,5 11,5 2 1 NO 1023,1 -
16.02.2018 00:00:00 12,2 11,4 4 2 ONO 1023,2 -
15.02.2018 23:00:00 13,0 11,4 4 2 Z 1023,2 -
15.02.2018 22:00:00 13,8 12,0 5 3 WZW 1023,0 20
15.02.2018 21:00:00 17,1 11,1 15 8 WZW 1021,7 -
15.02.2018 20:00:00 17,6 10,9 18 10 ZZW 1021,0 -
15.02.2018 19:00:00 17,8 10,8 22 12 Z 1020,3 30
15.02.2018 18:00:00 18,3 10,9 24 13 Z 1019,8 -
15.02.2018 17:00:00 19,9 11,1 26 14 Z 1019,4 -
15.02.2018 16:00:00 19,0 11,1 24 13 Z 1019,4 -
15.02.2018 15:00:00 19,8 11,1 21 11 Z 1019,6 -
15.02.2018 14:00:00 17,6 10,4 13 7 ONO 1020,1 -

tt = temperatuur
td = dauwpunt
ff = windsnelheid
dd = windrichting
ppp = luchtdruk
vv = zicht

Weerstations in de omgeving